OH2FDL-2 Weather Reports


Display with metric or nautical units.
time (UTC)temp
F
wind
direction
speed
MPH
gust
MPH
rain 1hr
in
rain 24hr
in
rain mn
in
humidity
%
barometer
mb
20260505081518 53 0.0 0.0 0.00 0.00 0.00 10 997.3
20260505080019 53 0.0 0.0 0.00 0.00 0.00 10 997.2
20260505074517 55 0.0 0.0 0.00 0.00 0.00 10 997.1
20260505073018 53 0.0 0.0 0.00 0.00 0.00 10 996.8
20260505071518 52 0.0 0.0 0.00 0.00 0.00 10 996.8
20260505070017 51 0.0 0.0 0.00 0.00 0.00 10 996.8
20260505064518 50 0.0 0.0 0.00 0.00 0.00 10 996.8
20260505063019 49 0.0 0.0 0.00 0.00 0.00 10 996.7
20260505061518 48 0.0 0.0 0.00 0.00 0.00 10 996.7
20260505041518 42 0.0 0.0 0.00 0.00 0.00 10 997.2
20260505040018 42 0.0 0.0 0.00 0.00 0.00 10 997.0
20260505034517 42 0.0 0.0 0.00 0.00 0.00 10 997.0
20260505033018 42 0.0 0.0 0.00 0.00 0.00 10 997.0
20260505031517 42 0.0 0.0 0.00 0.00 0.00 10 997.2
20260505030018 42 0.0 0.0 0.00 0.00 0.00 10 997.3
20260505024517 42 0.0 0.0 0.00 0.00 0.00 10 997.3
20260505023018 42 0.0 0.0 0.00 0.00 0.00 10 997.3
20260505020018 43 0.0 0.0 0.00 0.00 0.00 10 997.7
20260505013018 43 0.0 0.0 0.00 0.00 0.00 10 998.2
20260505011518 43 0.0 0.0 0.00 0.00 0.00 10 998.2
20260505010018 43 0.0 0.0 0.00 0.00 0.00 10 998.0
20260505004517 43 0.0 0.0 0.00 0.00 0.00 10 998.0
20260505003018 43 0.0 0.0 0.00 0.00 0.00 10 998.0
20260505001518 43 0.0 0.0 0.00 0.00 0.00 10 998.1
20260505000017 43 0.0 0.0 0.00 0.00 0.00 10 998.1
20260504234518 43 0.0 0.0 0.00 0.00 0.00 10 998.2
20260504231517 44 0.0 0.0 0.00 0.00 0.00 10 998.2
20260504230018 45 0.0 0.0 0.00 0.00 0.00 10 998.0
20260504224517 45 0.0 0.0 0.00 0.00 0.00 10 998.0
20260504223018 45 0.0 0.0 0.00 0.00 0.00 10 998.1
20260504221518 46 0.0 0.0 0.00 0.00 0.00 10 998.3
20260504214517 46 0.0 0.0 0.00 0.00 0.00 10 998.3
20260504211518 46 0.0 0.0 0.00 0.00 0.00 10 998.5
20260504210017 46 0.0 0.0 0.00 0.00 0.00 10 998.5
20260504204517 47 0.0 0.0 0.00 0.00 0.00 10 998.2
20260504203018 47 0.0 0.0 0.00 0.00 0.00 10 998.4
20260504201518 47 0.0 0.0 0.00 0.00 0.00 10 998.4
20260504200018 47 0.0 0.0 0.00 0.00 0.00 10 998.5
20260504194518 47 0.0 0.0 0.00 0.00 0.00 10 998.4
20260504193017 48 0.0 0.0 0.00 0.00 0.00 10 998.3
20260504191518 48 0.0 0.0 0.00 0.00 0.00 10 998.3
20260504190017 49 0.0 0.0 0.00 0.00 0.00 10 998.2
20260504184518 50 0.0 0.0 0.00 0.00 0.00 10 998.1
20260504183019 50 0.0 0.0 0.00 0.00 0.00 10 997.9
20260504181518 51 0.0 0.0 0.00 0.00 0.00 10 998.0
20260504180018 51 0.0 0.0 0.00 0.00 0.00 10 997.8
20260504174518 52 0.0 0.0 0.00 0.00 0.00 10 997.6